Location: Sungai Bunut
(2.6333°N, 113.7333°E)
Time: 19:24:28
(UTC+00:00)

Transit 4A - Pass Details

Date: 09 December 2023
Orbit: 870 x 973 km, 66.8° (Epoch: 04 March)

Event Time Altitude Azimuth Distance (km) Brightness Sun altitude
Rises 09:45:22 0° 193° (SSW) 3,624 11.5 6.3°
Reaches altitude 10° 09:47:56 10° 189° (S) 2,688 10.8 5.7°
Maximum altitude 09:54:09 63° 109° (ESE) 1,076 8.2 4.3°
Drops below altitude 10° 10:00:25 10° 29° (NNE) 2,708 9.9 2.9°
Sets 10:02:59 0° 26° (NNE) 3,652 10.5 2.3°
